• Processing (Info)

  • MPEC 2014-L29 : 2010 MR

    The following Minor Planet Electronic Circular may be linked-to from your own Web pages, but must not otherwise be redistributed electronically.

    A form allowing access to any MPEC is at the bottom of this page.


    Read MPEC 2014-L28 Read MPEC 2014-L30


    M.P.E.C. 2014-L29                                Issued 2014 June 5, 21:53 UT
    
         The Minor Planet Electronic Circulars contain information on unusual
             minor planets and routine data on comets.  They are published
       on behalf of Commission 20 of the International Astronomical Union by the
              Minor Planet Center, Smithsonian Astrophysical Observatory,
                              Cambridge, MA 02138, U.S.A.
    
                 Prepared using the Tamkin Foundation Computer Network
    
                                  MPC@CFA.HARVARD.EDU
                URL http://www.minorplanetcenter.net/    ISSN 1523-6714
    
                                        2010 MR
    
                               Revision to MPEC 2010-M21
    
    Additional Observations:
         K10M00R ~C2014 05 29.42793 19 39 35.22 -23 56 26.7          19.9 RtEL029675
         K10M00R ~C2014 05 29.43129 19 39 35.33 -23 56 26.1          19.8 RtEL029675
         K10M00R ~C2014 05 29.43634 19 39 35.52 -23 56 25.2          19.8 RtEL029675
         K10M00R ~C2014 06 05.39244 19 43 42.05 -23 37 22.7          19.9 RtEL029675
         K10M00R ~C2014 06 05.39755 19 43 42.14 -23 37 22.5          19.6 RtEL029675
    
    Observer details:
    675 Palomar Mountain.  Observer J. Pittichova.  1.5-m f/8.75 reflector + CCD.
    
    First and last observations above in comparison with prediction:
    Residuals in seconds of arc (or two decimals in degrees), reference and Delta-T
    140529 675 0.30+ 0.07+    140605 675 0.34+ 0.08+    MPO190724   -0.33 day
    
    Orbital elements:
    2010 MR                                                  Earth MOID = 0.1671 AU
    Epoch 2014 May 23.0 TT = JDT 2456800.5                  MPC
    M 325.46641              (2000.0)            P               Q
    n   0.25678824     Peri.   68.62992     +0.99844227     +0.01062340
    a   2.4514288      Node   290.72787     -0.03249647     +0.90873263
    e   0.5261766      Incl.    3.35742     +0.04535422     +0.41724353
    P   3.84           H   18.6           G   0.15           U   2
    Residuals in seconds of arc
    100616 G96  0.3-  0.2+    100617 H21  0.5+  0.2+    100713 474  0.2+  0.3-
    100616 G96  0.5-  0.1-    100617 926  1.0-  0.2-    100713 474  0.2+  0.1-
    100616 G96  0.0   0.0     100617 G96  0.6-  0.1+    100812 291  0.4+  0.4-
    100616 G96  0.6-  0.1-    100617 926  0.5+  0.1+    100812 291  0.5-  0.5-
    100616 G96  0.3-  0.1+    100617 291  0.1-  0.5+    100812 291  0.0   1.0-
    100616 G96  0.2+  0.1+    100617 291  0.7+  0.1+    101206 568  0.0   0.0
    100616 G96  0.3-  0.1-    100617 291  0.2-  0.8+    101206 568  0.1-  0.1+
    100616 H01  0.1+  0.3+    100618 H01  0.2+  0.2+    101206 568  0.0   0.0
    100616 G96  0.1+  0.3-    100618 H01  0.3+  0.2+    101207 568  0.1+  0.0
    100616 H01  0.2+  0.3+    100618 H01  0.1+  0.2+    101207 568  0.0   0.0
    100616 G96  0.4-  0.1-    100618 H01  0.2+  0.2+    101207 568  0.0   0.0
    100616 H01  0.2+  0.2+    100618 291  0.4+  0.1-    140529 675  0.2+  0.6-
    100616 H01  0.3+  0.2+    100618 291  0.0   0.4-    140529 675  0.0   0.5-
    100617 H21  0.0   0.1+    100619 291  0.0   0.4+    140529 675  0.0   0.4-
    100617 926  0.9+  0.7+    100619 291  0.1+  0.0     140605 675  0.4+  0.0
    100617 G96  0.0   0.0     100619 291  0.6-  0.4+    140605 675  0.2-  0.6-
    100617 G96  0.0   0.2-    100713 474  0.1-  0.3-
    
    Ephemeris:
    2010 MR                  a,e,i = 2.45, 0.53, 3                   q = 1.1615
    Date    TT    R. A. (2000) Decl.     Delta      r     Elong.  Phase     V
    2014 05 06    19 17 23.5 -24 55 39   1.2518  1.9383   117.7    27.4    21.8
    ...
    2014 05 21    19 32 55.5 -24 18 39   1.0272  1.8371   128.5    25.5    21.1
    ...
    2014 05 29    19 39 17.3 -23 57 27   0.9176  1.7827   134.7    23.8    20.8
    ...
    2014 06 04    19 42 59.0 -23 41 06   0.8406  1.7420   139.6    22.2    20.5
    2014 06 05    19 43 30.1 -23 38 19   0.8282  1.7352   140.4    21.9    20.4
    2014 06 06    19 43 59.4 -23 35 33   0.8160  1.7284   141.3    21.5    20.4
    ...
    2014 06 12    19 46 17.5 -23 18 31   0.7455  1.6877   146.4    19.4    20.1
    ...
    2014 06 20    19 47 32.1 -22 54 40   0.6595  1.6338   153.7    16.0    19.6
    ...
    2014 07 05    19 43 39.5 -22 02 23   0.5245  1.5345   168.8     7.4    18.7
    
    A. U. Tomatic                (C) Copyright 2014 MPC           M.P.E.C. 2014-L29
    

    Read MPEC 2014-L28 Read MPEC 2014-L30


    MPEC number:

    Enter an MPEC number in one of the following forms:

    • 1997-B01 (the full form)
    • J97B01 (the packed version of the full form)
    • B01 (the abbreviated form)